Overview Statistics Trail Chart Weather Telemetry Raw packets
 

This is the latest recevied weather packets stored in our database for station/object KJ6HT. If no packets are shown the sender has not sent any weather packets the latest 10 day(s).

<< 13 14 15 16 17 18 19 >>
Time Temp. Humidity Pressure Rain* Wind** Luminosity Snow
1788313558 26.11° C 39% 1011.3 hPa 0 mm - - -
1788312622 26.67° C 39% 1011.3 hPa 0 mm - - -
1788311771 27.22° C 38% 1011.3 hPa 0 mm - - -
1788310834 28.33° C 36% 1011.3 hPa 0 mm - - -
1788309982 28.89° C 34% 1011.4 hPa 0 mm - - -
1788309038 30° C 31% 1011.4 hPa 0 mm - - -
1788308176 30° C 28% 1011.4 hPa 0 mm - - -
1788307246 30° C 28% 1011.5 hPa 0 mm - - -
1788306399 30.56° C 25% 1011.5 hPa 0 mm - - -
1788305459 30° C 25% 1011.5 hPa 0 mm - - -
1788304513 30.56° C 30% 1011.4 hPa 0 mm - - -
1788303686 31.11° C 29% 1011.4 hPa 0 mm - - -
1788302741 31.11° C 29% 1011.6 hPa 0 mm - - -
1788301876 31.11° C 30% 1011.5 hPa 0 mm - - -
1788300928 31.67° C 30% 1011.7 hPa 0 mm - - -
1788300082 31.67° C 31% 1011.8 hPa 0 mm - - -
1788299130 32.22° C 29% 1012 hPa 0 mm - - -
1788298273 32.22° C 27% 1012.2 hPa 0 mm - - -
1788297330 32.22° C 24% 1012.1 hPa 0 mm - - -
1788296461 32.78° C 23% 1012.2 hPa 0 mm - - -
1788295524 32.22° C 23% 1012.3 hPa 0 mm - - -
1788294663 32.22° C 20% 1012.4 hPa 0 mm - - -
1788293715 31.67° C 27% 1012.6 hPa 0 mm - - -
1788292867 31.11° C 30% 1012.9 hPa 0 mm - - -
1788291926 30° C 33% 1013.1 hPa 0 mm - - -

* Rain latest hour (hover to see other rain measurements)
** Current wind speed in m/s (hover to see current wind gust speed)